Погода в Богатом

Россия / Калининградская область     54°54′21″N   20°08′24″E
темп.,
°C
ветер,
м/с
пор.,
м/с
влажн.,
%
обл.,
%
осадки,
мм/ч
давл.,
гПа
погр.,
м
20 апреля, вт
вт2023:00+8в5774100 0.0 101948
02:00+7вюв447990 0.0 101827
05:00+6вюв4485100 0.0 101737
08:00+7юв3382100 0.0 101730
11:00+8всв33798 0.0 101663
14:00+7ссв448191 0.2 101562
17:00+8с448267 0.0 101446
20:00+7с338432 0.0 101336
21 апреля, ср
ср2123:00+6ссз23855 0.0 101216
02:00+6зсз33845 0.0 101227
05:00+5зсз45845 0.0 101047
08:00+5з34855 0.0 101047
11:00+6з56845 0.0 1010117
14:00+6з688133 0.0 1009129
17:00+7зюз5879100 0.0 1008104
20:00+6з8138912 0.0 1008241
22 апреля, чт
чт2223:00+6зюз8137798 0.0 1008346
02:00+6зюз913775 0.0 1007523
05:00+5зюз11147476 0.0 10071019
08:00+5юз12158197 0.0 10061276
11:00+4з12157594 0.3 10081329
14:00+4з12156952 0.3 10091524
17:00+5з11137183 0.0 10091429
20:00+5з10117482 0.1 10101118
23 апреля, пт
пт2323:00+5зсз101276100 0.3 10091219
02:00+5зсз101473100 0.6 10101352
05:00+4зсз91173100 0.4 10101117
08:00+4зсз8107198 0.8 10111018
11:00+4зсз101177100 0.3 10131015
14:00+4зсз111276100 0.6 10161133
17:00+4сз101176100 0.3 10171110
20:00+4сз111279100 0.6 10181111
24 апреля, сб
сб2423:00+4сз9117699 0.4 10181048
02:00+5зсз91177100 0.7 10181093
05:00+5сз91172100 0.4 10171037
08:00+5сз7969100 1.1 1018988
11:00+4сз91069100 0.8 1018844
14:00+4сз1010675 1.1 10191237
17:00+3сз10116895 0.1 10181399
20:00+2зсз1115100100 0.9 1017836